Waarnemingen

Advertentie
Mijn weer
Muret-Lherm, Frankrijk (7628): temperatuur & dauwpunt: 09.10.2019 21:00:00 - 15.10.2019 21:00:00 (CEST)Muret-Lherm, Frankrijk (7628): windsnelheid & windstoten: 09.10.2019 21:00:00 - 15.10.2019 21:00:00 (CEST)Muret-Lherm, Frankrijk (7628): windrichting: 09.10.2019 21:00:00 - 15.10.2019 21:00:00 (CEST)Muret-Lherm, Frankrijk (7628): luchtdruk: 09.10.2019 21:00:00 - 15.10.2019 21:00:00 (CEST)Muret-Lherm, Frankrijk (7628): zicht: 09.10.2019 21:00:00 - 15.10.2019 21:00:00 (CEST)Muret-Lherm, Frankrijk (7628): neerslag: 09.10.2019 21:00:00 - 15.10.2019 21:00:00 (CEST)
Datum & Tijd tt [°C] td [°C] ff [km/u] ff [kn] fx [km/u] fx [kn] dd ppp [hPa] vv [km] rr [mm]
15.10.2019 21:00:00 10,5 5,9 5 3 11 6 W 1019,7 20 0,0
15.10.2019 20:00:00 13,5 6,8 4 2 18 10 N 1019,4 20 -
15.10.2019 19:00:00 15,0 6,8 15 8 31 17 WNW 1018,5 20 0,0
15.10.2019 18:00:00 16,6 6,4 24 13 39 21 W 1017,7 20 0,0
15.10.2019 17:00:00 17,2 7,0 22 12 42 23 W 1017,2 20 0,0
15.10.2019 16:00:00 18,4 7,5 29 16 42 23 WNW 1017,2 20 0,0
15.10.2019 15:00:00 18,0 6,2 28 15 46 25 W 1017,2 20 0,0
15.10.2019 14:00:00 16,4 6,5 35 19 59 32 W 1017,3 20 -
15.10.2019 13:00:00 16,7 7,6 34 18 52 28 W 1017,4 20 0,0
15.10.2019 12:00:00 15,2 7,5 35 19 50 27 W 1017,5 20 0,0
15.10.2019 11:00:00 14,2 8,2 29 16 42 23 W 1017,1 20 0,0
15.10.2019 10:00:00 12,3 8,2 22 12 35 19 W 1016,6 20 0,0
15.10.2019 09:00:00 11,4 8,6 18 10 28 15 WZW 1015,9 20 0,0
15.10.2019 08:00:00 9,3 7,2 9 5 28 15 ZW 1015,1 20 -
15.10.2019 07:00:00 11,0 8,4 18 10 31 17 W 1014,6 20 0,0
15.10.2019 06:00:00 11,5 9,2 18 10 35 19 W 1014,1 20 0,2
15.10.2019 05:00:00 12,1 10,3 18 10 37 20 W 1013,6 19 1,0
15.10.2019 04:00:00 12,4 11,0 13 7 26 14 W 1012,5 13 1,0
15.10.2019 03:00:00 12,9 11,3 8 4 13 7 Z 1012,8 20 0,0
15.10.2019 02:00:00 12,9 10,8 2 1 39 21 NNO 1012,5 20 -
15.10.2019 01:00:00 14,8 12,3 18 10 39 21 WNW 1011,8 20 0,0
15.10.2019 00:00:00 15,1 13,6 8 4 21 11 NNW 1010,9 20 0,2
14.10.2019 23:00:00 15,4 14,1 11 6 24 13 NNW 1009,6 20 -
14.10.2019 22:00:00 16,0 13,7 16 9 39 21 WNW 1009,1 20 0,4
14.10.2019 21:00:00 19,5 14,3 21 11 39 21 W 1008,1 19 0,0
14.10.2019 20:00:00 20,1 17,1 18 10 42 23 O 1006,9 17 -
14.10.2019 19:00:00 20,9 16,7 26 14 48 26 OZO 1006,9 19 0,0
14.10.2019 18:00:00 21,6 16,5 29 16 50 27 OZO 1007,6 20 0,0
14.10.2019 17:00:00 22,3 16,6 31 17 57 31 ZO 1007,7 20 0,0
14.10.2019 16:00:00 22,5 16,3 21 11 50 27 OZO 1008,8 20 0,0
14.10.2019 15:00:00 21,9 16,2 31 17 59 32 OZO 1008,7 20 0,0
14.10.2019 14:00:00 21,9 16,2 42 23 70 38 OZO 1008,4 19 -
14.10.2019 13:00:00 20,8 16,0 44 24 68 37 OZO 1008,7 20 0,0
14.10.2019 12:00:00 20,7 15,9 41 22 70 38 OZO 1009,6 20 0,0
14.10.2019 11:00:00 21,0 15,5 46 25 78 42 OZO 1010,2 20 0,0
14.10.2019 10:00:00 20,2 15,8 39 21 68 37 OZO 1010,1 19 0,0
14.10.2019 09:00:00 18,9 15,8 42 23 72 39 OZO 1010,1 20 0,0
14.10.2019 08:00:00 18,2 15,4 41 22 65 35 OZO 1010,5 20 -
14.10.2019 07:00:00 18,3 15,5 31 17 54 29 OZO 1011,5 20 0,0
14.10.2019 06:00:00 18,2 15,6 31 17 57 31 OZO 1011,8 20 0,0
14.10.2019 05:00:00 18,3 15,5 34 18 55 30 OZO 1011,5 20 0,0
14.10.2019 04:00:00 18,6 15,8 31 17 48 26 OZO 1011,5 20 0,0
14.10.2019 03:00:00 19,0 16,0 31 17 54 29 OZO 1011,8 20 0,0
14.10.2019 02:00:00 19,1 16,5 29 16 50 27 OZO 1011,8 20 -
14.10.2019 01:00:00 19,0 16,4 18 10 35 19 OZO 1012,8 20 0,0
14.10.2019 00:00:00 19,0 16,4 22 12 39 21 OZO 1013,3 20 0,0
13.10.2019 23:00:00 18,9 16,3 21 11 39 21 OZO 1013,8 20 0,0
13.10.2019 22:00:00 19,0 16,2 26 14 46 25 OZO 1013,7 20 0,0
13.10.2019 21:00:00 19,3 16,7 29 16 50 27 OZO 1013,4 20 0,0
13.10.2019 20:00:00 19,6 16,8 31 17 55 30 OZO 1013,0 20 -
13.10.2019 19:00:00 19,9 16,7 34 18 61 33 OZO 1012,8 20 0,0
13.10.2019 18:00:00 21,3 16,7 35 19 65 35 OZO 1012,7 20 0,0
13.10.2019 17:00:00 23,2 17,0 34 18 57 31 OZO 1012,3 20 0,0
13.10.2019 16:00:00 24,4 16,6 29 16 57 31 OZO 1012,2 20 0,0
13.10.2019 15:00:00 24,6 16,6 35 19 55 30 OZO 1012,3 20 0,0
13.10.2019 14:00:00 26,3 16,8 26 14 48 26 OZO 1013,1 20 -
13.10.2019 13:00:00 25,3 16,2 34 18 54 29 OZO 1013,4 20 0,0
13.10.2019 12:00:00 24,2 15,9 28 15 52 28 OZO 1013,7 18 0,0
13.10.2019 11:00:00 22,5 16,1 29 16 46 25 ZO 1014,0 20 0,0
13.10.2019 10:00:00 20,9 16,3 26 14 41 22 OZO 1013,9 19 0,0
13.10.2019 09:00:00 19,3 16,1 18 10 41 22 ZO 1013,8 20 0,0
13.10.2019 08:00:00 18,5 15,9 24 13 39 21 ZO 1013,6 20 -
13.10.2019 07:00:00 18,3 15,9 24 13 42 23 ZO 1013,3 20 0,0
13.10.2019 06:00:00 18,2 15,8 15 8 35 19 ZO 1013,4 20 0,0
13.10.2019 05:00:00 18,5 15,9 18 10 34 18 OZO 1013,5 20 0,0
13.10.2019 04:00:00 19,0 16,0 16 9 50 27 OZO 1014,2 20 0,0
13.10.2019 03:00:00 19,0 16,2 31 17 48 26 OZO 1014,2 20 0,0
13.10.2019 02:00:00 19,0 16,2 24 13 48 26 OZO 1014,6 20 -
13.10.2019 01:00:00 19,2 16,4 26 14 48 26 OZO 1014,9 20 0,0
13.10.2019 00:00:00 19,3 16,5 24 13 44 24 OZO 1015,1 20 0,0
12.10.2019 23:00:00 19,5 16,5 24 13 44 24 OZO 1015,2 20 0,0
12.10.2019 22:00:00 19,6 16,6 26 14 48 26 OZO 1014,9 20 0,0
12.10.2019 21:00:00 19,7 16,3 29 16 57 31 OZO 1014,7 20 0,0
12.10.2019 20:00:00 20,4 16,4 31 17 55 30 OZO 1014,5 20 -
12.10.2019 19:00:00 21,6 16,1 22 12 52 28 OZO 1014,5 20 0,0
12.10.2019 18:00:00 22,5 16,1 24 13 41 22 OZO 1014,6 20 0,0
12.10.2019 17:00:00 23,4 16,2 26 14 44 24 OZO 1014,7 20 0,0
12.10.2019 16:00:00 24,7 16,4 28 15 42 23 OZO 1014,8 20 0,0
12.10.2019 15:00:00 24,7 16,1 21 11 42 23 OZO 1015,1 20 0,0
12.10.2019 14:00:00 23,7 16,2 22 12 39 21 OZO 1015,6 20 -
12.10.2019 13:00:00 23,1 15,9 24 13 42 23 OZO 1016,1 20 0,0
12.10.2019 12:00:00 22,7 16,3 21 11 31 17 ZO 1016,3 20 0,0
12.10.2019 11:00:00 20,8 16,2 18 10 34 18 ZO 1016,2 20 0,0
12.10.2019 10:00:00 19,4 15,9 18 10 39 21 ZO 1015,5 20 0,0
12.10.2019 09:00:00 18,6 15,7 16 9 41 22 ZO 1015,2 20 0,0
12.10.2019 08:00:00 18,0 15,6 21 11 44 24 ZO 1014,6 20 -
12.10.2019 07:00:00 18,0 15,4 22 12 41 22 ZO 1014,9 20 0,0
12.10.2019 06:00:00 17,7 15,1 22 12 42 23 ZO 1015,1 20 0,0
12.10.2019 05:00:00 17,4 15,0 22 12 42 23 ZO 1015,1 20 0,0
12.10.2019 04:00:00 17,2 14,5 21 11 44 24 ZO 1015,3 20 0,0
12.10.2019 03:00:00 17,1 13,8 22 12 44 24 ZO 1016,2 20 0,0
12.10.2019 02:00:00 16,9 13,6 21 11 39 21 ZO 1016,6 20 -
12.10.2019 01:00:00 16,8 13,1 22 12 42 23 ZO 1016,9 20 0,0
12.10.2019 00:00:00 16,5 12,8 22 12 42 23 ZO 1017,5 20 0,0
11.10.2019 23:00:00 16,6 12,9 26 14 48 26 ZO 1017,7 20 0,0
11.10.2019 22:00:00 16,7 12,0 26 14 46 25 ZO 1017,8 20 0,0
11.10.2019 21:00:00 17,0 11,5 18 10 34 18 ZO 1017,5 20 0,0
11.10.2019 20:00:00 18,0 11,3 24 13 42 23 OZO 1017,6 20 -
11.10.2019 19:00:00 19,8 11,8 22 12 39 21 OZO 1017,2 20 0,0
11.10.2019 18:00:00 22,7 13,2 18 10 39 21 OZO 1016,8 20 0,0
11.10.2019 17:00:00 24,7 12,6 21 11 34 18 OZO 1016,5 20 0,0
11.10.2019 16:00:00 25,1 11,6 22 12 34 18 OZO 1016,7 20 0,0
11.10.2019 15:00:00 25,1 10,9 21 11 29 16 OZO 1017,3 18 0,0
11.10.2019 14:00:00 25,3 10,3 16 9 31 17 OZO 1018,0 18 -
11.10.2019 13:00:00 23,2 9,2 24 13 34 18 ZO 1018,9 20 0,0
11.10.2019 12:00:00 21,5 9,1 15 8 28 15 OZO 1019,4 20 0,0
11.10.2019 11:00:00 18,5 9,0 15 8 24 13 OZO 1019,9 20 0,0
11.10.2019 10:00:00 11,6 10,3 0 0 5 3 N 1020,2 20 0,0
11.10.2019 09:00:00 7,0 6,3 5 3 8 4 NW 1020,2 20 0,2
11.10.2019 08:00:00 4,6 3,6 2 1 8 4 N 1020,2 10 -
11.10.2019 07:00:00 4,4 3,2 2 1 5 3 N 1020,2 0,1 0,0
11.10.2019 06:00:00 4,5 3,3 2 1 4 2 WNW 1021,1 18 0,0
11.10.2019 05:00:00 4,8 3,5 0 0 2 1 N 1021,4 20 -
11.10.2019 04:00:00 5,5 4,0 0 0 4 2 N 1022,0 9 0,0
11.10.2019 03:00:00 5,7 3,9 0 0 4 2 N 1022,8 20 0,0
11.10.2019 02:00:00 6,4 4,6 0 0 0 0 N 1022,9 20 -
11.10.2019 01:00:00 7,5 5,3 0 0 4 2 N 1023,1 20 0,0
11.10.2019 00:00:00 8,0 5,5 0 0 4 2 N 1023,2 20 0,0
10.10.2019 23:00:00 8,8 6,1 2 1 13 7 WZW 1023,2 20 -
10.10.2019 22:00:00 9,9 6,8 4 2 5 3 NW 1023,1 20 0,0
10.10.2019 21:00:00 11,4 6,5 0 0 5 3 N 1022,8 20 0,0
10.10.2019 20:00:00 14,4 8,3 4 2 9 5 ONO 1022,5 20 -
10.10.2019 19:00:00 18,2 8,2 8 4 16 9 NO 1022,1 20 0,0
10.10.2019 18:00:00 20,8 8,4 8 4 18 10 NO 1022,0 20 0,0
10.10.2019 17:00:00 20,9 7,8 5 3 21 11 NNW 1022,2 20 0,0
10.10.2019 16:00:00 20,4 8,1 13 7 22 12 NNW 1022,6 80 0,0
10.10.2019 15:00:00 20,7 8,7 4 2 18 10 W 1022,8 20 0,0
10.10.2019 14:00:00 19,8 8,8 11 6 21 11 NW 1023,4 80 -
10.10.2019 13:00:00 19,3 8,6 13 7 22 12 WNW 1023,9 20 0,0
10.10.2019 12:00:00 19,0 9,2 15 8 26 14 NW 1024,5 20 0,0
10.10.2019 11:00:00 16,8 11,3 5 3 13 7 WZW 1024,8 19 0,0
10.10.2019 10:00:00 13,5 11,2 5 3 8 4 Z 1025,0 20 0,0
10.10.2019 09:00:00 10,0 9,2 4 2 8 4 Z 1024,6 19 0,0
10.10.2019 08:00:00 8,2 7,1 5 3 13 7 ZZO 1024,5 16 -
10.10.2019 07:00:00 8,5 7,4 5 3 8 4 ZZW 1024,1 12 0,0
10.10.2019 06:00:00 8,5 7,4 4 2 8 4 ZZW 1023,9 15 0,0
10.10.2019 05:00:00 9,0 7,9 8 4 11 6 WZW 1023,5 19 -
10.10.2019 04:00:00 9,7 8,6 8 4 11 6 ZZW 1023,4 19 0,0
10.10.2019 03:00:00 10,4 8,7 4 2 5 3 WZW 1023,5 20 0,0
10.10.2019 02:00:00 11,4 9,8 2 1 9 5 ZZW 1023,3 20 -
10.10.2019 01:00:00 12,3 10,7 4 2 8 4 ZZW 1023,4 20 0,0
10.10.2019 00:00:00 11,9 10,3 5 3 11 6 WZW 1023,5 20 0,0
09.10.2019 23:00:00 11,8 10,2 9 5 13 7 WZW 1023,2 20 0,0
09.10.2019 22:00:00 14,1 10,7 11 6 26 14 WZW 1022,9 20 0,0
09.10.2019 21:00:00 15,3 11,7 16 9 31 17 W 1022,6 20 0,0

tt = temperatuur
td = dauwpunt
ff = windsnelheid
fx = windstoten
dd = windrichting
ppp = luchtdruk
vv = zicht
rr = neerslag

Weerstations in de omgeving